Regional Weather Roundup
Issued by NWS New Orleans/Baton Rouge, LA

Home | Current Version | Previous Version | Text Only | Print | Product List | Glossary On
Versions: 1 2 3 4 5 6 7 8 9 10 11 12 13 14 15 16 17 18 19 20 21 22 23 24 25 26 27 28 29 30 31 32 33 34 35 36 37 38 39 40 41 42 43 44 45 46 47 48 49 50
326
ASUS44 KLIX 271911
RWRLIX
NEW ORLEANS REGIONAL WEATHER ROUNDUP
NATIONAL WEATHER SERVICE NEW ORLEANS LA
200 PM CDT WED JUL 27 2016

NOTE: "FAIR" INDICATES FEW OR NO CLOUDS BELOW 12,000 FEET WITH NO
      SIGNIFICANT WEATHER AND/OR OBSTRUCTIONS TO VISIBILITY.
      SKY/WX - SKY CONDITION AND SIGNIFICANT WEATHER.
      TMP - AIR TEMPERATURE.     DP    - DEWPOINT TEMPERATURE.
      RH  - RELATIVE HUMIDITY.   PRES  - PRESSURE.
      HI  - HEAT INDEX.          WCI   - WIND CHILL INDEX.

*  THESE STATIONS ARE NOT NWS OR FAA STATIONS AND ARE NOT UNDER
   NWS QUALITY CONTROL.

LAZ038-040-048-061>063-065>067-069-272000-
SOUTHEAST LOUISIANA

CITY           SKY/WX    TMP DP  RH WIND       PRES   REMARKS
N.O. AUDUBON   NOT AVBL
N.O. INTL ARPT PTSUNNY   84  73  69 W13       30.06S
N.O. LAKEFRONT PTSUNNY   82  71  69 W6        30.06F
N.O. DOWNTOWN*   N/A     85  73  67 VRB5      30.06F
RESERVE*         N/A     83  74  73 W14       30.06S
SLIDELL        MOSUNNY   80  73  79 VRB3      30.04F
BATON ROUGE    LGT RAIN  78  74  87 SW10      30.05F
BOOTHVILLE     MOSUNNY   87  77  72 SW10      30.06F HX  99
BELLE CHASSE   PTSUNNY   85  74  69 VRB5      30.05F
BOGALUSA*      CLOUDY    77  73  85 SW12G20   30.07R
GALLIANO*      CLOUDY    85  75  72 NW8       30.05F
NEW ROADS*     MOCLDY    79  72  80 SW8       30.05S
GONZALES*      CLOUDY    77  74  90 SW5G16    30.06S
HAMMOND*       CLOUDY    79  72  78 SW6       30.04F
HOUMA*         PTSUNNY   81  75  83 MISG      30.08F
PORT FOURCHON* MOCLDY    84  75  74 NW15      30.05F

$$

MSZ070-080>082-272000-
SOUTHERN MISSISSIPPI

CITY           SKY/WX    TMP DP  RH WIND       PRES   REMARKS
MCCOMB         LGT RAIN  75  72  90 S13G23    30.04R FOG
GULFPORT       PTSUNNY   87  74  64 S12G17    30.04F HX  95
BILOXI         MOSUNNY   87  75  68 SW10      30.05F HX  96
PASCAGOULA     MOSUNNY   89  79  72 SW7       30.06S HX 104

$$

COASTAL OBSERVATIONS
LAKE AND NEARSHORE STATIONS

STATION/POSITION TIME  TEMP    WIND        PRES    WAVE
                       AIR SEA DIR/SP/G            HT/PER
                 (UTC) (F)     (DEG/KT/KT) (MB)    (FT/S)
PASCAGOULA       1800   85     240/  9/ 11 1018.0
WAVELAND YACHT   1800   86 87  210/  8/ 14 1018.0
GRAND ISLE       1800   80 86  310/ 17/ 21 1018.4
SOUTHWEST PASS   1800          180/ 12/ 15   N/A
NEW CANAL        1800   80 85  270/  8/ 12 1017.5
SHELL BEACH      1800   85 86  190/ 10/ 12 1018.0

OFFSHORE STATIONS

STATION/POSITION TIME  TEMP    WIND        PRES    WAVE
                       AIR SEA DIR/SP/G            HT/PER
                 (UTC) (F)     (DEG/KT/KT) (MB)    (FT/S)
64 S DAUPHIN ISL 1800   85 87  180/ 14/ 16 1018.0

$$





USA.gov is the U.S. government's official web portal to all federal, state and local government web resources and services.